Time,TemperatureF,DewpointF,PressureIn,WindDirection,WindDirectionDegrees,WindSpeedMPH,WindSpeedGustMPH,Humidity,HourlyPrecipIn,Conditions,Clouds,dailyrainin,SoftwareType,DateUTC
2013-07-14 00:04:00,79.7,76.0,30.23,NNE,25,11.0,-999.0,87,-99.99,,,0.00,weatherlink.com 1.10,2013-07-14 04:04:00,
2013-07-14 00:19:00,79.8,76.0,30.23,NNE,26,10.0,-999.0,87,-99.99,,,0.00,weatherlink.com 1.10,2013-07-14 04:19:00,
2013-07-14 00:34:00,79.7,76.0,30.23,NNE,25,10.0,-999.0,87,-99.99,,,0.00,weatherlink.com 1.10,2013-07-14 04:34:00,
2013-07-14 00:49:00,79.8,76.0,30.23,NNE,24,12.0,-999.0,88,-99.99,,,0.00,weatherlink.com 1.10,2013-07-14 04:49:00,
2013-07-14 01:04:00,79.7,76.0,30.23,NNE,25,14.0,-999.0,89,-99.99,,,0.00,weatherlink.com 1.10,2013-07-14 05:04:00,
2013-07-14 01:19:00,79.6,76.0,30.23,NNE,25,14.0,-999.0,89,-99.99,,,0.00,weatherlink.com 1.10,2013-07-14 05:19:00,
2013-07-14 01:34:00,79.6,77.0,30.24,NNE,24,12.0,-999.0,90,-99.99,,,0.00,weatherlink.com 1.10,2013-07-14 05:34:00,
2013-07-14 01:49:00,79.3,77.0,30.23,NNE,24,12.0,-999.0,91,-99.99,,,0.00,weatherlink.com 1.10,2013-07-14 05:49:00,
2013-07-14 02:04:00,79.3,77.0,30.23,NNE,23,13.0,-999.0,91,-99.99,,,0.00,weatherlink.com 1.10,2013-07-14 06:04:00,
2013-07-14 02:19:00,79.1,77.0,30.23,NNE,23,10.0,-999.0,92,-99.99,,,0.00,weatherlink.com 1.10,2013-07-14 06:19:00,
2013-07-14 02:34:00,79.0,77.0,30.23,NNE,24,9.0,-999.0,92,-99.99,,,0.00,weatherlink.com 1.10,2013-07-14 06:34:00,
2013-07-14 02:49:00,79.0,77.0,30.23,NNE,22,9.0,-999.0,93,-99.99,,,0.00,weatherlink.com 1.10,2013-07-14 06:49:00,
2013-07-14 03:04:00,79.0,77.0,30.23,NNE,23,11.0,-999.0,93,-99.99,,,0.00,weatherlink.com 1.10,2013-07-14 07:04:00,
2013-07-14 03:19:00,79.1,77.0,30.23,NNE,22,10.0,-999.0,93,-99.99,,,0.00,weatherlink.com 1.10,2013-07-14 07:19:00,
2013-07-14 03:34:00,79.0,77.0,30.24,NNE,22,10.0,-999.0,94,-99.99,,,0.00,weatherlink.com 1.10,2013-07-14 07:34:00,
2013-07-14 03:49:00,78.9,77.0,30.23,NNE,22,11.0,-999.0,93,-99.99,,,0.00,weatherlink.com 1.10,2013-07-14 07:49:00,
2013-07-14 04:04:00,78.9,77.0,30.24,NNE,21,10.0,-999.0,93,-99.99,,,0.00,weatherlink.com 1.10,2013-07-14 08:04:00,
2013-07-14 04:19:00,78.9,77.0,30.24,NNE,20,9.0,-999.0,93,-99.99,,,0.00,weatherlink.com 1.10,2013-07-14 08:19:00,
2013-07-14 04:34:00,78.8,77.0,30.24,NNE,19,10.0,-999.0,93,-99.99,,,0.00,weatherlink.com 1.10,2013-07-14 08:34:00,
2013-07-14 04:49:00,78.7,77.0,30.24,NNE,20,9.0,-999.0,93,-99.99,,,0.00,weatherlink.com 1.10,2013-07-14 08:49:00,
2013-07-14 05:19:00,78.9,77.0,30.24,NNE,21,9.0,-999.0,93,-99.99,,,0.00,weatherlink.com 1.10,2013-07-14 09:19:00,
2013-07-14 05:34:00,78.9,77.0,30.24,NNE,20,9.0,-999.0,93,-99.99,,,0.00,weatherlink.com 1.10,2013-07-14 09:34:00,
2013-07-14 05:49:00,78.6,77.0,30.25,NNE,20,10.0,-999.0,93,-99.99,,,0.00,weatherlink.com 1.10,2013-07-14 09:49:00,
2013-07-14 06:04:00,78.7,76.0,30.25,NNE,19,11.0,-999.0,92,-99.99,,,0.00,weatherlink.com 1.10,2013-07-14 10:04:00,
2013-07-14 06:20:00,78.8,76.0,30.25,NNE,19,11.0,-999.0,92,-99.99,,,0.00,weatherlink.com 1.10,2013-07-14 10:20:00,
2013-07-14 06:35:00,78.8,76.0,30.26,NNE,19,9.0,-999.0,92,-99.99,,,0.00,weatherlink.com 1.10,2013-07-14 10:35:00,
2013-07-14 06:50:00,78.9,77.0,30.26,NNE,21,10.0,-999.0,92,-99.99,,,0.00,weatherlink.com 1.10,2013-07-14 10:50:00,
2013-07-14 07:05:00,79.1,77.0,30.27,NNE,20,9.0,-999.0,92,-99.99,,,0.00,weatherlink.com 1.10,2013-07-14 11:05:00,
2013-07-14 07:20:00,79.3,77.0,30.27,NNE,19,9.0,-999.0,92,-99.99,,,0.00,weatherlink.com 1.10,2013-07-14 11:20:00,
2013-07-14 07:35:00,79.3,77.0,30.27,NNE,21,10.0,-999.0,92,-99.99,,,0.00,weatherlink.com 1.10,2013-07-14 11:35:00,
2013-07-14 07:50:00,79.9,77.0,30.28,NNE,19,7.0,-999.0,92,-99.99,,,0.00,weatherlink.com 1.10,2013-07-14 11:50:00,
2013-07-14 08:05:00,80.2,77.0,30.28,NNE,19,9.0,-999.0,91,-99.99,,,0.00,weatherlink.com 1.10,2013-07-14 12:05:00,
2013-07-14 08:20:00,80.5,78.0,30.28,NNE,19,8.0,-999.0,91,-99.99,,,0.00,weatherlink.com 1.10,2013-07-14 12:20:00,
2013-07-14 08:35:00,80.3,77.0,30.29,NNE,20,7.0,-999.0,90,-99.99,,,0.00,weatherlink.com 1.10,2013-07-14 12:35:00,
2013-07-14 08:50:00,80.7,78.0,30.29,NNE,20,10.0,-999.0,90,-99.99,,,0.00,weatherlink.com 1.10,2013-07-14 12:50:00,
2013-07-14 09:05:00,81.1,78.0,30.29,NNE,19,7.0,-999.0,89,-99.99,,,0.00,weatherlink.com 1.10,2013-07-14 13:05:00,
2013-07-14 09:20:00,81.4,78.0,30.30,NNE,20,10.0,-999.0,88,-99.99,,,0.00,weatherlink.com 1.10,2013-07-14 13:20:00,
2013-07-14 09:35:00,81.6,78.0,30.30,NNE,20,9.0,-999.0,88,-99.99,,,0.00,weatherlink.com 1.10,2013-07-14 13:35:00,
2013-07-14 09:50:00,82.4,78.0,30.30,NNE,19,10.0,-999.0,87,-99.99,,,0.00,weatherlink.com 1.10,2013-07-14 13:50:00,
2013-07-14 10:05:00,82.5,78.0,30.30,NNE,20,11.0,-999.0,86,-99.99,,,0.00,weatherlink.com 1.10,2013-07-14 14:05:00,
2013-07-14 10:20:00,82.7,78.0,30.30,NNE,20,9.0,-999.0,86,-99.99,,,0.00,weatherlink.com 1.10,2013-07-14 14:20:00,
2013-07-14 10:35:00,82.7,78.0,30.30,NNE,18,10.0,-999.0,84,-99.99,,,0.00,weatherlink.com 1.10,2013-07-14 14:35:00,
2013-07-14 10:50:00,83.1,78.0,30.30,NNE,22,9.0,-999.0,83,-99.99,,,0.00,weatherlink.com 1.10,2013-07-14 14:50:00,
2013-07-14 11:05:00,82.8,77.0,30.31,NNE,19,8.0,-999.0,83,-99.99,,,0.00,weatherlink.com 1.10,2013-07-14 15:05:00,
2013-07-14 11:20:00,83.1,78.0,30.31,NNE,19,9.0,-999.0,83,-99.99,,,0.00,weatherlink.com 1.10,2013-07-14 15:20:00,
2013-07-14 11:35:00,84.1,78.0,30.31,NNE,20,9.0,-999.0,81,-99.99,,,0.00,weatherlink.com 1.10,2013-07-14 15:35:00,
2013-07-14 11:50:00,84.3,78.0,30.31,NNE,18,8.0,-999.0,81,-99.99,,,0.00,weatherlink.com 1.10,2013-07-14 15:50:00,
2013-07-14 12:05:00,84.6,78.0,30.31,NNE,20,8.0,-999.0,81,-99.99,,,0.00,weatherlink.com 1.10,2013-07-14 16:05:00,
2013-07-14 12:20:00,84.4,78.0,30.31,NNE,20,10.0,-999.0,82,-99.99,,,0.00,weatherlink.com 1.10,2013-07-14 16:20:00,
2013-07-14 12:50:00,83.6,78.0,30.31,NNE,19,12.0,-999.0,83,-99.99,,,0.00,weatherlink.com 1.10,2013-07-14 16:50:00,
2013-07-14 13:05:00,83.6,78.0,30.31,NNE,19,12.0,-999.0,83,-99.99,,,0.00,weatherlink.com 1.10,2013-07-14 17:05:00,
2013-07-14 13:20:00,83.9,78.0,30.31,NNE,19,13.0,-999.0,82,-99.99,,,0.00,weatherlink.com 1.10,2013-07-14 17:20:00,
2013-07-14 13:35:00,84.3,78.0,30.31,NNE,19,8.0,-999.0,81,-99.99,,,0.00,weatherlink.com 1.10,2013-07-14 17:35:00,
2013-07-14 13:50:00,84.1,77.0,30.31,NNE,20,12.0,-999.0,80,-99.99,,,0.00,weatherlink.com 1.10,2013-07-14 17:50:00,
2013-07-14 14:05:00,84.2,77.0,30.31,NNE,19,11.0,-999.0,80,-99.99,,,0.00,weatherlink.com 1.10,2013-07-14 18:05:00,
2013-07-14 14:20:00,84.1,78.0,30.30,NNE,19,12.0,-999.0,82,-99.99,,,0.00,weatherlink.com 1.10,2013-07-14 18:20:00,
2013-07-14 14:35:00,83.8,77.0,30.30,NNE,19,9.0,-999.0,80,-99.99,,,0.00,weatherlink.com 1.10,2013-07-14 18:35:00,
2013-07-14 14:50:00,83.8,77.0,30.30,NNE,19,9.0,-999.0,81,-99.99,,,0.00,weatherlink.com 1.10,2013-07-14 18:50:00,
2013-07-14 15:05:00,84.0,77.0,30.30,NNE,19,8.0,-999.0,80,-99.99,,,0.00,weatherlink.com 1.10,2013-07-14 19:05:00,
2013-07-14 15:20:00,84.0,77.0,30.29,NNE,19,10.0,-999.0,80,-99.99,,,0.00,weatherlink.com 1.10,2013-07-14 19:20:00,
2013-07-14 15:35:00,84.2,77.0,30.29,NNE,20,11.0,-999.0,80,-99.99,,,0.00,weatherlink.com 1.10,2013-07-14 19:35:00,
2013-07-14 15:50:00,83.8,77.0,30.29,NNE,20,8.0,-999.0,81,-99.99,,,0.00,weatherlink.com 1.10,2013-07-14 19:50:00,
2013-07-14 16:05:00,83.9,78.0,30.28,NNE,20,9.0,-999.0,82,-99.99,,,0.00,weatherlink.com 1.10,2013-07-14 20:05:00,
2013-07-14 16:20:00,83.9,78.0,30.28,NNE,22,10.0,-999.0,81,-99.99,,,0.00,weatherlink.com 1.10,2013-07-14 20:20:00,
2013-07-14 16:50:00,83.7,78.0,30.28,NNE,20,13.0,-999.0,82,-99.99,,,0.00,weatherlink.com 1.10,2013-07-14 20:50:00,
2013-07-14 17:05:00,83.3,78.0,30.27,NNE,20,13.0,-999.0,83,-99.99,,,0.00,weatherlink.com 1.10,2013-07-14 21:05:00,
2013-07-14 17:20:00,83.1,78.0,30.27,NNE,20,14.0,-999.0,84,-99.99,,,0.00,weatherlink.com 1.10,2013-07-14 21:20:00,
2013-07-14 17:35:00,82.6,78.0,30.27,NNE,19,10.0,-999.0,85,-99.99,,,0.00,weatherlink.com 1.10,2013-07-14 21:35:00,
2013-07-14 17:50:00,82.8,78.0,30.27,NNE,19,12.0,-999.0,85,-99.99,,,0.00,weatherlink.com 1.10,2013-07-14 21:50:00,
2013-07-14 18:05:00,82.7,77.0,30.27,NNE,19,12.0,-999.0,83,-99.99,,,0.00,weatherlink.com 1.10,2013-07-14 22:05:00,
2013-07-14 18:20:00,82.2,77.0,30.27,NNE,19,12.0,-999.0,84,-99.99,,,0.00,weatherlink.com 1.10,2013-07-14 22:20:00,
2013-07-14 18:35:00,82.5,78.0,30.28,NNE,17,9.0,-999.0,85,-99.99,,,0.00,weatherlink.com 1.10,2013-07-14 22:35:00,
2013-07-14 18:50:00,82.1,77.0,30.27,NNE,19,10.0,-999.0,84,-99.99,,,0.00,weatherlink.com 1.10,2013-07-14 22:50:00,
2013-07-14 19:05:00,81.9,77.0,30.27,NNE,20,8.0,-999.0,85,-99.99,,,0.00,weatherlink.com 1.10,2013-07-14 23:05:00,
2013-07-14 19:20:00,81.7,77.0,30.27,NNE,18,15.0,-999.0,86,-99.99,,,0.00,weatherlink.com 1.10,2013-07-14 23:20:00,
2013-07-14 19:35:00,81.4,77.0,30.28,NNE,19,12.0,-999.0,86,-99.99,,,0.00,weatherlink.com 1.10,2013-07-14 23:35:00,
2013-07-14 19:50:00,81.4,77.0,30.28,NNE,19,11.0,-999.0,86,-99.99,,,0.00,weatherlink.com 1.10,2013-07-14 23:50:00,
2013-07-14 20:05:00,81.2,76.0,30.28,NNE,18,9.0,-999.0,85,-99.99,,,0.00,weatherlink.com 1.10,2013-07-15 00:05:00,
2013-07-14 20:20:00,81.2,77.0,30.28,NNE,18,14.0,-999.0,86,-99.99,,,0.00,weatherlink.com 1.10,2013-07-15 00:20:00,
2013-07-14 20:35:00,81.1,77.0,30.28,NNE,19,13.0,-999.0,86,-99.99,,,0.00,weatherlink.com 1.10,2013-07-15 00:35:00,
2013-07-14 20:50:00,81.0,77.0,30.28,NNE,18,11.0,-999.0,86,-99.99,,,0.00,weatherlink.com 1.10,2013-07-15 00:50:00,
2013-07-14 21:05:00,81.0,77.0,30.28,NNE,18,12.0,-999.0,87,-99.99,,,0.00,weatherlink.com 1.10,2013-07-15 01:05:00,
2013-07-14 21:20:00,80.6,76.0,30.29,NNE,18,9.0,-999.0,86,-99.99,,,0.00,weatherlink.com 1.10,2013-07-15 01:20:00,
2013-07-14 21:35:00,80.6,76.0,30.29,NNE,17,10.0,-999.0,86,-99.99,,,0.00,weatherlink.com 1.10,2013-07-15 01:35:00,
2013-07-14 21:50:00,80.1,75.0,30.29,NNE,15,6.0,-999.0,85,-99.99,,,0.00,weatherlink.com 1.10,2013-07-15 01:50:00,
2013-07-14 22:05:00,80.1,75.0,30.30,NNE,15,5.0,-999.0,84,-99.99,,,0.00,weatherlink.com 1.10,2013-07-15 02:05:00,
2013-07-14 22:20:00,80.3,76.0,30.30,NNE,14,10.0,-999.0,85,-99.99,,,0.00,weatherlink.com 1.10,2013-07-15 02:20:00,
2013-07-14 22:35:00,80.3,76.0,30.30,NNE,15,6.0,-999.0,86,-99.99,,,0.00,weatherlink.com 1.10,2013-07-15 02:35:00,
2013-07-14 22:51:00,80.7,77.0,30.30,NNE,15,4.0,-999.0,87,-99.99,,,0.00,weatherlink.com 1.10,2013-07-15 02:51:00,
2013-07-14 23:06:00,80.5,76.0,30.30,NNE,13,7.0,-999.0,87,-99.99,,,0.00,weatherlink.com 1.10,2013-07-15 03:06:00,
2013-07-14 23:21:00,80.3,76.0,30.30,NNE,17,12.0,-999.0,87,-99.99,,,0.00,weatherlink.com 1.10,2013-07-15 03:21:00,
2013-07-14 23:36:00,80.6,77.0,30.30,NNE,18,12.0,-999.0,88,-99.99,,,0.00,weatherlink.com 1.10,2013-07-15 03:36:00,
2013-07-14 23:51:00,80.7,77.0,30.30,NNE,15,11.0,-999.0,88,-99.99,,,0.00,weatherlink.com 1.10,2013-07-15 03:51:00,